Home > Weather > Freetown > Past weeks

Flag for Sierra Leone Weather for the Past 2 Weeks in Freetown, Sierra Leone

Now
84 °F

Passing clouds.


Feels Like: 90 °F
Forecast: 80 / 86 °F
Wind: 7 mph from Northwest

Location: Conakry / Gbessia

Current Time: Apr 29, 2016 at 10:46:57 AM

Latest Report: Apr 29, 2016 at 10:00 AM


Visibility: N/A

Pressure: 29.86 "Hg

Humidity: 66%

Dew Point: 72 °F

Location of FreetownLocation

Historic Weather in Freetown — Graph

°F

Freetown Temperature Yesterday

Maximum temperature yesterday: 91 °F (at 2:00 PM)
Minimum temperature yesterday: 79 °F (at 4:00 AM)
Average temperature yesterday: 83 °F

High & Low Weather Summary for the Past Weeks

 TemperatureHumidityPressure
High93 °F (Apr 20, 1:00 PM)100% (Apr 19, 8:00 AM)29.95 "Hg (Apr 19, 8:00 AM)
Low75 °F (Apr 24, 6:00 AM)36% (Apr 28, 4:00 PM)29.71 "Hg (Apr 24, 5:00 PM)
Average84 °F76%29.84 "Hg
* Reported Apr 14 12:00 Noon — Apr 29 9:00 AM, Freetown, Weather by CustomWeather, © 2016

Note: Actual official high and low records may vary slightly from our data, if they occured in-between our weather recording intervals... More about our weather records

Advertising

Freetown Weather History for the Previous 24 Hours

Scroll right to see more
 ConditionsComfort  
Time TempWeatherWind HumidityBarometerVisibility
9:00 AM
Fri, Apr 29
82 °FPassing clouds.7 mph70%29.83 "HgN/A
8:00 AM79 °FScattered clouds.5 mph94%29.83 "HgN/A
7:00 AM77 °FScattered clouds.2 mph100%29.83 "HgN/A
6:00 AM77 °FClear.2 mph100%29.83 "Hg10 mi
5:00 AM79 °FPassing clouds.5 mph89%29.83 "HgN/A
4:00 AM79 °FPassing clouds.2 mph89%29.83 "HgN/A
3:00 AM79 °FPassing clouds.5 mph100%29.83 "HgN/A
2:00 AM79 °FPassing clouds.5 mph100%29.83 "HgN/A
1:00 AM79 °FPassing clouds.5 mph100%29.86 "HgN/A
12:00 AM79 °FClear.9 mph100%29.86 "Hg10 mi
11:00 PM
Thu, Apr 28
81 °FClear.5 mph94%29.86 "Hg10 mi
10:00 PM81 °FPassing clouds.9 mph84%29.86 "HgN/A
9:00 PM81 °FPassing clouds.7 mph100%29.83 "HgN/A
8:00 PM81 °FPassing clouds.7 mph79%29.83 "HgN/A
7:00 PM82 °FPassing clouds.14 mph70%29.80 "HgN/A
6:00 PM86 °FSunny.14 mph55%29.77 "Hg10 mi
5:00 PM90 °FSunny.14 mph46%29.77 "Hg10 mi
4:00 PM91 °FSunny.14 mph36%29.80 "Hg10 mi
3:00 PM90 °FSunny.12 mph52%29.80 "Hg10 mi
2:00 PM91 °FSunny.12 mph63%29.80 "Hg10 mi
1:00 PM90 °FSunny.7 mph59%29.86 "Hg10 mi
12:00 PM88 °FSunny.7 mph59%29.89 "Hg10 mi
11:00 AM86 °FPassing clouds.9 mph66%29.89 "HgN/A
10:00 AM84 °FScattered clouds.9 mph84%29.89 "HgN/A
Weather by CustomWeather, © 2016

See weather overviewHow to use our weather pages